Weather History for Volk, WI

Change the Weather History Date:

Saturday, October 27, 2012

  Actual Average Record
Temperature  
Mean Temperature 34 °F -  
Max Temperature 45 °F 50 °F 69 °F (2014)
Min Temperature 24 °F 37 °F 22 °F (2013)
Degree Days  
Heating Degree Days 30    
Moisture  
Dew Point 22 °F    
Average Humidity 65    
Maximum Humidity 93    
Minimum Humidity 29    
Precipitation  
Precipitation 0.00 in - - ()
Sea Level Pressure  
Sea Level Pressure 30.36 in    
Wind  
Wind Speed 3 mph (NW)    
Max Wind Speed 9 mph    
Max Gust Speed 18 mph    
Visibility 10 miles    
Events      
Averages and records for this station are not official NWS values.
T = Trace of Precipitation, MM = Missing Value Source: NWS Daily Summary

Daily Weather History Graph

Daily Weather History Graph

Search for Another Location

Airport:

Trip Planner

Search our weather history database for the weather conditions in past years. The results will help you decide how hot, cold, wet, or windy it might be!

Date:

Astronomy

Oct. 27, 2012 Rise Set
Actual Time 7:31 AM CDT 5:57 PM CDT
Civil Twilight 7:01 AM CDT 6:27 PM CDT
Nautical Twilight 6:27 AM CDT 7:01 PM CDT
Astronomical Twilight 5:54 AM CDT 7:34 PM CDT
Moon 4:45 PM CDT (10/27) 5:23 AM CDT (10/27)
Length of Visible Light 11h 25m
Length of Day
10h 26m
Waxing Gibbous, 96% of the Moon is Illuminated
Oct 27
Waxing Gibbous
Oct 29
Full
Nov 6
Last Quarter
Nov 13
New
Nov 20
First Quarter

Hourly Weather History & Observations

Time (CDT) Temp. Windchill Dew Point Humidity Pressure Visibility Wind Dir Wind Speed Gust Speed Precip Events Conditions
12:55 AM 27.0 °F - 23.4 °F 86% 30.36 in 10.0 mi Calm Calm - N/A   Mostly Cloudy
1:55 AM 28.8 °F - 24.4 °F 84% 30.35 in 10.0 mi Calm Calm - N/A   Overcast
2:55 AM 29.3 °F - 26.4 °F 89% 30.35 in 10.0 mi Calm Calm - N/A   Overcast
3:55 AM 31.3 °F - 26.4 °F 82% 30.34 in 10.0 mi Calm Calm - N/A   Overcast
4:55 AM 30.9 °F 26.2 °F 26.8 °F 85% 30.35 in 10.0 mi WNW 4.6 mph - N/A   Overcast
5:55 AM 32.0 °F 26.4 °F 26.6 °F 80% 30.36 in 10.0 mi West 5.8 mph - N/A   Overcast
6:55 AM 30.2 °F 25.4 °F 26.6 °F 86% 30.37 in 10.0 mi WNW 4.6 mph - N/A   Mostly Cloudy
7:55 AM 28.4 °F - 26.6 °F 93% 30.39 in 10.0 mi Calm Calm - N/A   Mostly Cloudy
8:55 AM 32.0 °F - 28.4 °F 87% 30.40 in 10.0 mi Calm Calm - N/A   Partly Cloudy
9:55 AM 39.2 °F 37.0 °F 23.0 °F 52% 30.40 in 10.0 mi North 3.5 mph - N/A   Clear
10:55 AM 41.0 °F 37.1 °F 15.8 °F 36% 30.39 in 10.0 mi Variable 5.8 mph - N/A   Partly Cloudy
11:55 AM 42.3 °F 37.3 °F 13.8 °F 32% 30.39 in 10.0 mi WNW 8.1 mph - N/A   Clear
12:55 PM 44.6 °F 39.7 °F 14.0 °F 29% 30.36 in 10.0 mi NNW 9.2 mph - N/A   Clear
1:55 PM 44.6 °F 42.2 °F 14.0 °F 29% 30.34 in 10.0 mi NNW 4.6 mph - N/A   Partly Cloudy
2:55 PM 44.6 °F 40.2 °F 14.0 °F 29% 30.32 in 10.0 mi North 8.1 mph 18.4 mph N/A   Partly Cloudy
3:55 PM 44.6 °F 43.1 °F 15.8 °F 31% 30.32 in 10.0 mi Variable 3.5 mph - N/A   Scattered Clouds
4:55 PM 42.8 °F 37.5 °F 15.8 °F 34% 30.32 in 10.0 mi NNW 9.2 mph - N/A   Scattered Clouds
5:55 PM 37.4 °F 34.9 °F 19.4 °F 48% 30.32 in 10.0 mi North 3.5 mph - N/A   Mostly Cloudy
6:55 PM 33.8 °F - 21.2 °F 60% 30.34 in 10.0 mi Calm Calm - N/A   Mostly Cloudy
7:55 PM 32.0 °F - 23.0 °F 69% 30.35 in 10.0 mi Calm Calm - N/A   Mostly Cloudy
8:55 PM 30.2 °F - 24.8 °F 80% 30.35 in 10.0 mi Calm Calm - N/A   Mostly Cloudy
9:55 PM 28.4 °F 22.2 °F 23.0 °F 80% 30.36 in 10.0 mi West 5.8 mph - N/A   Mostly Cloudy
10:55 PM 25.7 °F 20.1 °F 22.6 °F 88% 30.37 in 10.0 mi West 4.6 mph - N/A   Mostly Cloudy
11:55 PM 24.4 °F 20.1 °F 20.8 °F 86% 30.37 in 10.0 mi WNW 3.5 mph - N/A   Partly Cloudy